Wind_Speed
4 5 4 2 2 2 4 5 6 7 7 8 9 10 9 10 9 10 11 11 12 15 26 18 15 11 9 6 6 8 9 9 9 10 10 9 9 9 9 9 9 12 13
2 1 1 2 1 0 2 7 7 9 9 11 11 10 11 11 10 9 9 10 9 8 7 25 19 16 13 15 9 8 9 10 10 11 11 12 11 11 10 10 10 10 12
1 2 2 2 1 5 6 7 11 11 12 11 13 13 10 9 8 7 10 10 7 6 3 5 27 23 17 22 20 15 11 12 11 11 12 13 13 13 12 11 11 11 11
1 2 2 3 4 6 3 6 8 9 12 11 11 13 13 16 20 6 11 10 7 7 7 6 5 22 28 23 27 29 26 16 14 14 13 14 14 14 14 14 13 13 13
2 4 3 5 3 4 5 6 8 9 9 11 13 12 14 17 18 14 10 9 8 9 9 9 6 6 11 32 27 28 21 27 18 17 16 15 16 16 16 16 15 15 14
3 3 4 5 6 5 6 8 9 9 11 10 11 14 14 16 15 11 10 10 11 11 12 11 9 11 8 5 19 34 28 30 28 24 21 21 19 18 18 18 17 17 16
5 5 5 5 6 7 7 9 10 10 11 12 11 12 13 18 15 17 8 13 11 14 12 12 10 9 7 3 5 12 19 35 30 31 26 24 23 21 19 19 19 19 18
6 5 4 5 6 8 9 10 9 10 12 12 11 12 9 11 10 14 15 15 14 14 13 10 10 10 8 6 8 7 13 11 32 32 30 26 26 25 23 22 21 21 20
6 6 7 7 9 9 10 9 11 10 13 15 14 14 12 10 11 15 17 12 18 14 12 13 12 13 15 14 13 5 9 6 11 21 38 31 26 26 26 25 24 23 23
5 5 7 9 10 12 12 14 15 13 16 16 15 15 21 16 16 10 14 17 13 19 17 13 13 14 8 8 10 10 9 8 6 5 23 37 33 27 26 27 27 26 25
3 5 7 9 11 12 13 13 15 18 19 19 19 20 21 22 20 16 16 13 18 19 18 19 14 14 12 11 9 11 10 9 10 11 12 20 41 34 29 28 28 28 28
5 6 10 12 13 15 16 18 20 22 22 25 26 27 27 27 27 23 21 18 18 16 16 17 18 13 15 13 10 13 10 10 7 7 13 16 14 36 38 31 30 30 29
9 13 12 15 17 17 17 17 21 22 22 22 23 28 32 34 32 28 24 20 16 17 14 15 16 19 15 14 13 12 10 10 9 7 9 11 18 20 26 35 38 34 33
10 11 14 15 16 15 15 14 15 17 19 21 27 32 31 31 26 32 23 20 17 14 16 14 16 17 13 17 10 12 11 12 10 9 9 9 8 15 24 31 38 42 37
11 10 11 13 15 14 13 13 15 16 18 22 27 32 31 28 20 25 19 19 17 12 12 15 15 16 14 9 13 13 12 13 14 12 12 12 11 9 11 21 30 35 45
14 13 15 16 16 17 16 15 17 16 17 21 25 29 26 24 11 10 12 14 8 13 13 10 15 15 16 17 16 16 15 13 14 15 14 13 14 14 14 17 23 33 36
16 17 19 19 20 21 21 20 20 21 20 20 22 24 17 18 10 9 6 5 7 13 15 8 14 15 17 15 18 20 19 16 14 16 16 16 16 16 18 18 20 28 35
18 21 22 23 22 23 24 25 24 23 22 21 19 18 14 11 11 10 13 16 15 18 19 18 18 19 20 15 16 16 25 23 19 16 15 17 17 16 17 16 11 17 24
23 24 26 27 26 26 26 26 25 25 25 23 21 16 13 12 15 17 18 14 12 14 15 19 19 20 20 20 20 15 19 23 23 21 17 17 18 17 16 9 4 7 18
24 26 27 27 26 26 26 25 26 25 25 25 23 21 16 13 12 13 12 11 12 15 19 25 25 22 21 22 22 18 21 28 33 28 19 16 18 18 18 17 12 9 9
27 29 30 26 26 26 26 27 26 27 26 26 25 23 22 20 20 17 16 16 17 18 22 27 26 24 24 23 21 22 22 28 30 24 22 20 19 18 19 20 17 12 7
26 27 28 28 28 27 28 28 29 29 29 29 26 26 26 26 24 24 22 20 19 19 20 24 24 17 17 21 21 19 19 25 22 26 29 22 21 20 19 20 16 16 3
27 28 28 28 27 27 27 29 28 28 29 28 27 27 28 29 29 26 24 25 24 22 22 22 20 16 14 16 17 20 21 24 23 17 27 26 22 20 20 21 19 17 15
30 31 32 33 33 34 33 31 31 28 28 29 29 28 29 29 30 31 29 27 27 26 26 23 22 19 21 19 22 24 22 24 25 23 33 30 27 22 21 23 21 18 15
34 35 36 37 38 37 39 37 35 35 34 33 34 34 31 29 29 28 29 28 28 27 29 27 25 24 23 24 24 26 26 28 23 29 34 32 34 29 26 25 25 21 22
36 37 39 38 38 40 40 41 41 41 41 39 38 39 39 38 36 36 34 34 32 28 31 31 31 30 29 27 28 27 27 26 26 24 34 36 38 35 31 25 23 24 24
Wind_Direction
183 146 210 129 90 344 332 331 304 324 330 339 336 336 335 324 328 334 339 332 333 234 222 218 220 231 236 226 230 230 214 206 206 205 204 199 193 187 183 175 169 175 183
195 211 137 301 277 167 273 296 319 325 333 340 346 339 330 321 331 346 340 333 339 358 243 227 210 216 223 232 228 231 237 222 214 212 206 210 204 195 191 187 184 177 182
247 358 16 308 353 314 346 319 322 330 334 337 338 341 333 322 309 9 3 346 341 346 326 339 223 217 216 230 226 227 236 235 226 225 218 212 208 208 197 195 190 191 184
256 308 296 303 326 319 270 306 311 317 317 326 325 332 326 317 317 3 357 2 353 354 337 315 270 232 221 231 231 231 236 234 232 225 225 224 215 209 207 203 196 195 193
205 236 304 313 324 325 304 310 304 298 304 318 328 323 332 335 341 341 321 333 333 332 330 324 340 294 254 236 237 236 229 230 230 231 228 222 223 214 210 207 201 196 196
259 254 280 295 284 282 279 283 297 305 308 321 332 332 341 338 343 339 323 325 331 327 322 315 316 309 294 296 248 238 240 234 235 234 227 225 222 222 215 211 204 198 198
279 300 306 310 314 310 304 310 308 313 316 321 323 325 335 337 344 338 323 326 322 317 322 317 312 309 314 326 330 325 264 232 227 225 227 224 219 222 221 216 212 204 200
272 283 289 301 297 302 310 314 314 317 317 316 318 323 345 313 324 320 327 308 311 320 324 315 317 309 290 284 323 321 301 253 229 223 228 226 223 221 225 224 219 213 207
267 261 276 293 298 306 313 313 310 311 315 318 318 314 315 299 305 316 313 318 315 310 318 306 317 311 311 316 287 297 328 317 249 242 217 224 227 225 227 226 224 220 215
291 302 307 303 304 303 313 314 313 312 315 315 313 297 303 305 300 295 292 299 309 315 317 310 314 321 316 338 301 300 291 279 238 290 226 222 221 225 227 227 224 223 221
347 346 334 332 334 326 321 319 312 314 312 313 310 305 298 297 296 291 290 275 295 298 299 307 304 294 300 316 317 305 282 273 262 238 231 220 224 224 226 228 227 224 223
322 313 314 316 316 316 311 312 314 312 312 311 312 310 301 295 289 281 277 281 287 287 294 298 299 290 296 289 315 299 268 257 252 243 223 220 225 223 224 227 228 227 224
297 302 328 317 316 312 307 308 308 313 315 317 317 318 310 296 286 280 273 268 276 290 288 292 295 291 287 270 285 291 271 248 248 249 250 236 238 234 223 226 229 229 226
291 306 312 322 322 320 317 321 323 318 322 323 329 322 319 309 282 269 266 268 260 282 277 292 287 288 289 277 288 285 267 249 247 256 259 263 260 245 237 236 232 226 227
281 302 315 319 321 323 326 325 326 332 330 326 327 334 328 326 276 249 259 261 261 252 287 295 291 286 282 269 274 272 269 254 254 257 260 265 267 261 256 246 239 235 230
276 288 298 309 314 312 314 312 311 321 324 330 337 344 339 350 345 310 267 281 280 283 282 296 299 293 283 278 278 278 269 263 257 258 260 264 270 271 272 275 252 239 239
278 286 294 296 302 306 310 308 303 307 315 325 334 345 358 2 360 291 273 318 326 299 303 295 278 280 286 287 285 261 277 271 265 257 259 262 270 275 275 293 263 241 234
282 288 292 297 295 295 300 302 300 299 305 314 324 336 336 3 16 7 351 312 313 309 310 309 289 284 278 281 283 262 252 265 269 262 262 264 267 273 278 302 280 237 236
280 287 297 296 294 295 294 293 293 294 296 303 308 314 327 300 308 316 324 331 340 337 332 326 317 284 277 286 275 259 252 248 266 263 269 267 266 267 264 273 235 230 235
281 291 295 293 292 293 294 291 289 291 293 296 295 297 297 301 301 302 303 312 316 321 324 324 316 301 284 284 289 296 266 260 262 249 268 262 261 262 254 249 251 265 302
285 289 290 290 291 292 292 292 290 290 289 289 288 283 285 288 290 287 286 293 304 313 321 326 323 287 274 280 288 292 295 296 266 250 250 263 258 252 253 250 244 244 312
286 287 286 288 289 288 288 287 289 289 289 288 286 282 281 286 284 282 283 280 288 299 311 325 330 318 279 280 297 319 298 294 277 279 235 251 256 254 256 245 240 236 303
296 295 294 291 291 290 288 289 288 286 287 287 284 280 281 283 283 282 281 279 282 290 299 311 326 320 319 318 316 325 312 298 291 274 226 233 249 251 252 255 239 241 243
292 288 287 288 289 290 288 287 287 285 285 284 283 280 280 279 280 281 279 276 276 281 289 297 303 305 311 312 319 316 317 318 284 249 229 230 232 248 249 251 250 243 244
293 290 289 288 287 286 286 285 282 282 279 279 280 281 280 279 279 278 278 276 274 275 280 286 288 290 291 298 305 316 320 322 298 260 237 230 225 242 247 246 254 250 245
297 297 295 293 291 288 286 283 282 279 278 277 275 277 279 278 274 272 271 275 275 277 276 276 280 280 281 284 293 302 314 318 320 280 245 230 225 238 244 245 250 258 242
Height
3232 3232 3233 3232 3233 3232 3231 3232 3230 3230 3229 3228 3227 3226 3225 3223 3222 3221 3220 3218 3216 3217 3215 3220 3222 3224 3224 3226 3227 3228 3229 3230 3231 3232 3233 3234 3236 3236 3237 3237 3238 3240 3242
3232 3232 3233 3232 3233 3232 3231 3232 3231 3231 3229 3229 3227 3225 3223 3221 3219 3219 3218 3218 3217 3216 3215 3216 3219 3221 3222 3223 3225 3226 3228 3229 3230 3231 3232 3234 3235 3236 3237 3237 3238 3240 3241
3233 3232 3233 3233 3232 3232 3232 3231 3230 3230 3229 3228 3226 3224 3222 3219 3214 3214 3216 3216 3216 3215 3215 3215 3214 3217 3219 3215 3220 3223 3225 3227 3229 3231 3232 3232 3234 3235 3236 3237 3238 3239 3241
3232 3232 3232 3232 3231 3231 3231 3232 3232 3230 3228 3228 3227 3224 3222 3217 3208 3196 3214 3216 3216 3216 3214 3213 3212 3212 3215 3217 3219 3218 3222 3225 3226 3228 3230 3232 3232 3233 3235 3236 3238 3239 3240
3231 3231 3231 3231 3232 3232 3231 3230 3230 3230 3228 3227 3226 3224 3221 3218 3214 3214 3216 3216 3216 3215 3215 3214 3212 3210 3211 3214 3216 3217 3219 3222 3223 3226 3228 3229 3231 3232 3234 3235 3236 3238 3240
3232 3231 3231 3231 3231 3231 3230 3230 3230 3229 3228 3227 3225 3223 3220 3219 3217 3216 3216 3215 3214 3214 3213 3212 3211 3210 3209 3208 3209 3212 3214 3217 3219 3222 3224 3226 3228 3230 3232 3233 3235 3236 3238
3231 3232 3232 3230 3231 3231 3230 3230 3229 3228 3227 3226 3225 3223 3221 3218 3217 3216 3212 3214 3213 3213 3212 3211 3210 3209 3208 3208 3207 3208 3207 3210 3212 3216 3221 3223 3224 3227 3229 3231 3233 3234 3236
3230 3230 3230 3230 3230 3230 3230 3230 3229 3227 3225 3223 3223 3222 3221 3221 3219 3217 3213 3216 3213 3211 3210 3209 3209 3208 3206 3206 3207 3204 3201 3202 3206 3211 3215 3218 3221 3223 3225 3228 3230 3232 3234
3229 3229 3229 3229 3229 3228 3228 3227 3226 3226 3224 3222 3221 3221 3221 3220 3217 3215 3214 3211 3211 3209 3208 3209 3206 3206 3205 3203 3205 3202 3201 3199 3202 3204 3208 3213 3217 3219 3221 3224 3226 3229 3231
3229 3230 3229 3229 3229 3228 3227 3226 3224 3224 3223 3222 3220 3219 3218 3217 3216 3216 3213 3211 3209 3207 3205 3205 3204 3204 3202 3201 3201 3201 3200 3200 3200 3199 3199 3206 3210 3214 3217 3219 3222 3225 3227
3229 3229 3229 3228 3228 3227 3225 3225 3224 3221 3219 3219 3217 3216 3215 3212 3212 3209 3209 3209 3206 3205 3204 3201 3202 3201 3201 3199 3198 3199 3198 3198 3198 3199 3199 3200 3204 3208 3211 3215 3217 3220 3223
3227 3227 3227 3227 3225 3224 3223 3223 3221 3219 3218 3215 3214 3212 3211 3209 3207 3206 3204 3204 3202 3203 3201 3200 3198 3198 3197 3196 3195 3196 3196 3196 3196 3196 3197 3198 3198 3201 3204 3209 3212 3215 3218
3227 3226 3224 3224 3223 3222 3220 3219 3217 3216 3214 3212 3210 3207 3203 3200 3198 3198 3198 3197 3197 3198 3197 3196 3195 3195 3195 3194 3192 3192 3192 3193 3193 3193 3194 3194 3195 3196 3199 3202 3206 3209 3212
3224 3224 3223 3221 3220 3218 3217 3215 3214 3213 3211 3209 3205 3201 3196 3191 3189 3190 3191 3192 3193 3193 3195 3193 3192 3192 3192 3190 3190 3189 3188 3189 3189 3190 3191 3191 3191 3191 3193 3195 3197 3201 3205
3222 3222 3221 3220 3218 3216 3214 3213 3212 3211 3209 3206 3202 3196 3189 3182 3178 3178 3186 3187 3186 3187 3188 3189 3189 3188 3189 3187 3187 3186 3185 3185 3185 3185 3186 3187 3187 3188 3188 3189 3190 3193 3196
3220 3219 3219 3218 3216 3215 3212 3211 3209 3207 3206 3203 3199 3194 3188 3181 3176 3175 3182 3182 3183 3185 3184 3184 3185 3184 3185 3185 3184 3184 3182 3181 3182 3182 3182 3182 3183 3184 3183 3183 3183 3185 3187
3217 3217 3216 3215 3213 3211 3209 3208 3206 3205 3203 3200 3197 3192 3188 3183 3181 3181 3182 3182 3183 3183 3178 3180 3180 3176 3179 3180 3180 3180 3180 3178 3178 3178 3178 3178 3178 3179 3178 3176 3175 3176 3179
3214 3213 3212 3211 3209 3207 3205 3203 3203 3201 3199 3197 3195 3192 3188 3186 3183 3183 3182 3182 3181 3181 3178 3178 3179 3177 3175 3175 3175 3175 3174 3175 3175 3173 3174 3174 3174 3174 3174 3171 3168 3169 3173
3210 3210 3208 3206 3204 3203 3202 3198 3198 3196 3194 3193 3192 3190 3187 3185 3183 3182 3181 3179 3178 3177 3177 3175 3174 3172 3171 3170 3167 3167 3170 3169 3169 3166 3165 3168 3169 3169 3169 3168 3166 3166 3167
3207 3205 3203 3201 3199 3197 3195 3195 3191 3190 3189 3187 3188 3186 3184 3182 3181 3180 3179 3178 3176 3175 3173 3170 3168 3167 3165 3164 3163 3162 3164 3163 3161 3160 3159 3161 3163 3164 3165 3164 3164 3163 3162
3201 3199 3196 3194 3193 3189 3188 3188 3187 3184 3184 3183 3182 3181 3179 3178 3177 3176 3174 3173 3172 3170 3168 3165 3163 3159 3159 3159 3160 3158 3157 3155 3154 3154 3154 3157 3157 3159 3159 3159 3159 3159 3157
3194 3192 3191 3189 3187 3186 3184 3183 3180 3179 3177 3176 3175 3173 3173 3172 3172 3171 3169 3168 3167 3165 3164 3162 3159 3154 3154 3154 3154 3154 3152 3150 3150 3151 3151 3151 3152 3154 3154 3153 3155 3154 3154
3188 3186 3184 3182 3180 3178 3178 3176 3174 3172 3170 3168 3167 3166 3166 3165 3164 3164 3163 3162 3161 3159 3159 3158 3156 3153 3152 3151 3150 3149 3147 3145 3143 3143 3145 3146 3147 3148 3149 3149 3149 3150 3151
3182 3180 3177 3175 3173 3171 3169 3169 3167 3165 3164 3161 3159 3158 3158 3158 3157 3155 3155 3154 3154 3153 3152 3151 3151 3150 3148 3147 3146 3144 3142 3139 3137 3139 3140 3139 3143 3143 3143 3143 3144 3146 3146
3176 3173 3170 3167 3165 3163 3159 3159 3158 3156 3154 3153 3152 3150 3150 3149 3149 3148 3146 3146 3146 3146 3145 3144 3143 3144 3143 3142 3141 3139 3136 3133 3131 3130 3130 3133 3135 3134 3135 3136 3138 3140 3141
3167 3164 3161 3158 3155 3152 3150 3146 3146 3145 3143 3142 3141 3141 3140 3139 3139 3137 3137 3136 3137 3139 3136 3136 3135 3135 3135 3135 3135 3134 3131 3128 3124 3122 3123 3125 3125 3126 3127 3129 3131 3132 3132